TimeEDT,TemperatureF,Dew PointF,Humidity,Sea Level PressureIn,VisibilityMPH,Wind Direction,Wind SpeedMPH,Gust SpeedMPH,PrecipitationIn,Events,Conditions,WindDirDegrees,DateUTC
12:15 AM,53.6,47.8,81,29.93,10.0,North,5.8,-,N/A,,Overcast,360,2012-09-30 04:15:00
12:35 AM,53.4,47.8,81,29.93,10.0,North,4.6,-,N/A,,Overcast,360,2012-09-30 04:35:00
12:55 AM,53.2,47.7,81,29.93,10.0,North,5.8,-,N/A,,Overcast,360,2012-09-30 04:55:00
1:15 AM,53.2,47.7,81,29.93,10.0,North,5.8,-,N/A,,Overcast,360,2012-09-30 05:15:00
1:55 AM,53.2,47.7,81,29.93,10.0,NNW,4.6,-,N/A,,Overcast,340,2012-09-30 05:55:00
2:15 AM,53.2,47.8,82,29.94,10.0,North,3.5,-,N/A,,Overcast,350,2012-09-30 06:15:00
2:35 AM,53.1,47.7,82,29.92,10.0,NNW,5.8,-,N/A,,Overcast,340,2012-09-30 06:35:00
2:55 AM,53.1,47.7,82,29.92,10.0,North,3.5,-,N/A,,Overcast,350,2012-09-30 06:55:00
3:15 AM,52.9,47.5,82,29.91,10.0,NNW,5.8,-,N/A,,Overcast,340,2012-09-30 07:15:00
3:35 AM,52.9,47.5,82,29.91,10.0,North,4.6,-,N/A,,Overcast,350,2012-09-30 07:35:00
3:55 AM,52.9,47.5,82,29.91,10.0,North,4.6,-,N/A,,Overcast,350,2012-09-30 07:55:00
4:15 AM,52.9,47.3,81,29.92,10.0,North,3.5,-,N/A,,Overcast,360,2012-09-30 08:15:00
4:35 AM,52.7,47.3,82,29.92,10.0,North,4.6,-,N/A,,Overcast,350,2012-09-30 08:35:00
4:55 AM,52.7,47.3,82,29.92,10.0,North,5.8,-,N/A,,Overcast,350,2012-09-30 08:55:00
5:15 AM,52.7,47.3,82,29.91,10.0,North,5.8,-,N/A,,Overcast,10,2012-09-30 09:15:00
5:35 AM,52.7,47.3,82,29.91,10.0,North,6.9,-,N/A,,Overcast,360,2012-09-30 09:35:00
6:15 AM,52.7,46.9,81,29.91,10.0,North,6.9,-,N/A,,Overcast,360,2012-09-30 10:15:00
6:35 AM,52.7,46.9,81,29.91,10.0,North,6.9,-,N/A,,Overcast,360,2012-09-30 10:35:00
6:55 AM,52.7,46.9,81,29.90,10.0,North,8.1,-,N/A,,Overcast,360,2012-09-30 10:55:00
7:15 AM,52.5,46.9,81,29.90,10.0,North,6.9,-,N/A,,Overcast,360,2012-09-30 11:15:00
7:35 AM,52.7,47.1,81,29.90,10.0,North,4.6,-,N/A,,Overcast,350,2012-09-30 11:35:00
7:55 AM,52.9,47.3,81,29.90,10.0,North,6.9,-,N/A,,Overcast,350,2012-09-30 11:55:00
8:15 AM,53.1,47.3,81,29.90,10.0,NNW,6.9,-,N/A,,Overcast,340,2012-09-30 12:15:00
8:35 AM,53.2,47.5,81,29.90,10.0,NNW,5.8,-,N/A,,Overcast,340,2012-09-30 12:35:00
8:55 AM,53.6,47.7,80,29.90,10.0,NNW,4.6,-,N/A,,Overcast,340,2012-09-30 12:55:00
9:15 AM,54.1,48.0,80,29.89,10.0,North,6.9,-,N/A,,Overcast,350,2012-09-30 13:15:00
9:35 AM,54.5,48.2,79,29.89,10.0,North,5.8,-,N/A,,Overcast,350,2012-09-30 13:35:00
9:55 AM,54.7,48.2,79,29.88,10.0,North,5.8,-,N/A,,Overcast,350,2012-09-30 13:55:00
10:15 AM,55.0,48.4,78,29.88,10.0,North,5.8,-,N/A,,Overcast,350,2012-09-30 14:15:00
10:35 AM,54.9,48.4,79,29.86,10.0,NNW,5.8,-,N/A,,Overcast,340,2012-09-30 14:35:00
10:55 AM,55.4,48.7,78,29.86,10.0,North,4.6,-,N/A,,Overcast,360,2012-09-30 14:55:00
11:15 AM,55.6,49.1,79,29.85,10.0,NNW,4.6,-,N/A,,Overcast,330,2012-09-30 15:15:00
11:35 AM,56.1,49.1,77,29.84,10.0,NNW,5.8,-,N/A,,Overcast,330,2012-09-30 15:35:00
11:55 AM,55.9,49.1,78,29.83,10.0,NNW,6.9,-,N/A,,Overcast,340,2012-09-30 15:55:00
12:15 PM,56.3,49.3,77,29.83,10.0,NNW,8.1,-,N/A,,Overcast,340,2012-09-30 16:15:00
12:35 PM,55.9,49.5,79,29.83,10.0,North,5.8,-,N/A,Rain,Light Rain,360,2012-09-30 16:35:00
12:55 PM,55.6,49.5,80,29.82,7.0,NNW,4.6,-,N/A,Rain,Rain,340,2012-09-30 16:55:00
1:15 PM,55.6,50.0,81,29.80,5.0,NW,3.5,-,N/A,Rain,Rain,320,2012-09-30 17:15:00
1:35 PM,56.3,50.9,82,29.79,7.0,North,5.8,-,N/A,Rain,Rain,350,2012-09-30 17:35:00
1:55 PM,55.9,50.5,82,29.78,10.0,North,8.1,-,N/A,Rain,Light Rain,350,2012-09-30 17:55:00
2:15 PM,55.9,50.7,83,29.77,10.0,North,8.1,-,N/A,Rain,Light Rain,360,2012-09-30 18:15:00
2:35 PM,56.3,50.9,82,29.76,10.0,North,8.1,-,N/A,Rain,Light Rain,350,2012-09-30 18:35:00
2:55 PM,56.3,50.9,82,29.75,10.0,North,6.9,-,N/A,Rain,Light Rain,350,2012-09-30 18:55:00
3:15 PM,56.3,50.7,82,29.74,10.0,NNW,6.9,-,N/A,Rain,Light Rain,340,2012-09-30 19:15:00
3:35 PM,56.3,50.9,82,29.73,7.0,NNW,4.6,-,N/A,Rain,Light Rain,340,2012-09-30 19:35:00
3:55 PM,55.9,50.9,83,29.72,10.0,NNW,3.5,-,N/A,,Drizzle,330,2012-09-30 19:55:00
4:15 PM,55.9,50.5,82,29.72,10.0,NW,3.5,-,N/A,Rain,Rain,320,2012-09-30 20:15:00
4:35 PM,56.1,50.7,82,29.71,5.0,Calm,Calm,-,N/A,Rain,Rain,0,2012-09-30 20:35:00
4:55 PM,55.9,50.9,83,29.70,2.5,Calm,Calm,-,N/A,Rain,Rain,0,2012-09-30 20:55:00
5:15 PM,55.9,50.9,83,29.69,2.5,Calm,Calm,-,N/A,Rain,Rain,0,2012-09-30 21:15:00
5:35 PM,55.6,50.7,84,29.68,3.0,Calm,Calm,-,N/A,Rain,Light Rain,0,2012-09-30 21:35:00
5:55 PM,55.4,50.4,83,29.68,2.5,Calm,Calm,-,N/A,Rain,Rain,0,2012-09-30 21:55:00
6:15 PM,55.4,50.2,83,29.68,3.0,Calm,Calm,-,N/A,Rain,Light Rain,0,2012-09-30 22:15:00
6:35 PM,55.4,50.2,83,29.67,4.0,Calm,Calm,-,N/A,Rain,Light Rain,0,2012-09-30 22:35:00
6:55 PM,55.0,50.2,84,29.67,4.0,SW,3.5,-,N/A,Rain,Rain,220,2012-09-30 22:55:00
7:15 PM,55.0,50.2,84,29.66,4.0,SW,3.5,-,N/A,Rain,Light Rain,220,2012-09-30 23:15:00
7:35 PM,54.7,50.0,84,29.66,10.0,SW,3.5,-,N/A,,Drizzle,220,2012-09-30 23:35:00
7:55 PM,54.5,49.5,83,29.65,10.0,SW,4.6,-,N/A,,Drizzle,230,2012-09-30 23:55:00
8:15 PM,54.1,49.1,83,29.64,10.0,SW,6.9,-,N/A,,Drizzle,230,2012-10-01 00:15:00
8:35 PM,54.1,48.7,82,29.64,10.0,South,3.5,-,N/A,,Drizzle,190,2012-10-01 00:35:00
8:55 PM,54.1,48.7,82,29.64,10.0,South,4.6,-,N/A,Rain,Light Rain,190,2012-10-01 00:55:00
9:15 PM,53.8,48.6,82,29.64,10.0,South,4.6,-,N/A,Rain,Light Rain,190,2012-10-01 01:15:00
9:35 PM,53.6,48.2,82,29.63,10.0,SSW,4.6,-,N/A,,Drizzle,200,2012-10-01 01:35:00
9:55 PM,53.4,47.7,81,29.63,10.0,South,4.6,-,N/A,Rain,Light Rain,190,2012-10-01 01:55:00
10:15 PM,53.2,47.5,81,29.62,10.0,SSW,6.9,-,N/A,,Light Drizzle,210,2012-10-01 02:15:00
10:35 PM,52.9,47.3,81,29.62,10.0,SSW,6.9,-,N/A,Rain,Light Rain,210,2012-10-01 02:35:00
10:55 PM,52.7,47.3,82,29.61,10.0,SSW,6.9,-,N/A,Rain,Rain,210,2012-10-01 02:55:00
11:15 PM,52.7,47.3,82,29.60,10.0,SSW,8.1,-,N/A,Rain,Light Rain,200,2012-10-01 03:15:00
11:35 PM,52.7,47.3,82,29.60,10.0,SSW,8.1,-,N/A,Rain,Light Rain,210,2012-10-01 03:35:00
11:55 PM,52.7,46.9,81,29.59,10.0,South,4.6,-,N/A,Rain,Rain,190,2012-10-01 03:55:00